Terminal Aerodrome Forecast
Issued by NWS

Home | Current Version | Previous Version | Text Only | Print | Product List | Glossary On
Versions: 1 2 3 4 5 6 7 8 9 10 11 12 13 14 15 16 17 18 19 20 21 22 23 24 25 26 27 28 29 30 31 32 33 34 35 36 37 38 39 40
000
FTAK31 PAFA 180628 AAA
TAFAGA
TAF AMD
PAGA 180628Z 1806/1906 VRB03KT P6SM SCT004 OVC050
     FM181200 VRB03KT P6SM BKN015
     FM181800 00000KT P6SM SCT100=

USA.gov is the U.S. government's official web portal to all federal, state and local government web resources and services.